Location: Bambrugge
(50.9212°N, 3.9299°E)
Time: 14:37:47
(UTC+00:00)

Cosmos 1408 - Pass Details

Date: 23 May 2024
Orbit: 362 x 376 km, 82.6° (Epoch: 19 June)

Event Time Altitude Azimuth Distance (km) Brightness Sun altitude
Rises 13:28:17 0° 341° (NNW) 2,232 5.8 53.1°
Reaches altitude 10° 13:30:22 10° 331° (NNW) 1,381 4.9 52.8°
Maximum altitude 13:33:04 32° 267° (W) 678 4.4 52.5°
Drops below altitude 10° 13:35:47 10° 202° (SSW) 1,382 5.6 52.2°
Enters shadow 14:07:58 -67° 170° (S) 12,121 9.3 48.2°
Exits shadow 14:43:15 -41° 7° (N) 8,976 8.5 43.3°
